Date,TemperatureHighF,TemperatureAvgF,TemperatureLowF,DewpointHighF,DewpointAvgF,DewpointLowF,HumidityHigh,HumidityAvg,HumidityLow,PressureMaxIn,PressureMinIn,WindSpeedMaxMPH,WindSpeedAvgMPH,GustSpeedMaxMPH,PrecipitationSumIn
2013-1-1,50.4,39.0,30.2,37.3,33.6,28.7,97,82,56,30.35,30.29,18,2,18,0.00
2013-1-2,54.0,38.1,27.2,36.7,30.9,26.0,97,79,42,30.33,30.22,15,1,15,0.01
2013-1-3,53.4,37.2,26.5,42.4,33.4,25.3,97,87,63,30.36,30.25,12,1,12,0.00
2013-1-4,54.9,40.2,30.4,38.8,34.0,29.4,98,81,49,30.37,30.26,14,1,14,0.01
2013-1-5,54.2,41.1,31.1,47.1,39.1,29.9,98,93,75,30.34,30.16,10,0,0,0.31
2013-1-6,48.1,42.6,35.3,45.9,41.6,34.8,98,96,90,30.27,30.15,15,1,15,0.05
2013-1-7,59.4,43.2,31.9,50.5,40.1,31.4,99,90,64,30.33,30.23,10,0,0,0.01
2013-1-8,57.8,44.4,36.6,47.1,41.0,36.1,99,89,67,30.31,30.20,10,1,0,0.00
2013-1-9,51.2,43.4,35.7,49.0,40.6,34.8,99,90,75,30.23,30.05,17,1,17,0.01
2013-1-10,49.2,40.3,31.7,37.6,33.8,30.4,98,79,50,30.26,30.14,18,1,18,0.00
2013-1-11,51.5,39.6,31.2,40.8,33.8,29.4,95,81,54,30.33,30.19,12,1,12,0.00
2013-1-12,51.2,37.0,27.0,36.3,29.3,21.6,97,78,36,30.33,30.21,11,0,0,0.01
2013-1-13,48.7,34.3,24.3,27.6,23.5,16.7,94,70,30,30.34,30.25,10,1,0,0.01
2013-1-14,48.7,36.5,25.0,27.6,21.4,13.5,91,59,28,30.48,30.30,23,2,23,0.00
2013-1-15,51.2,35.9,25.7,32.0,28.2,24.0,95,76,44,30.56,30.48,12,1,12,0.00
2013-1-16,55.4,37.9,26.2,36.9,30.8,24.6,97,78,44,30.52,30.34,12,1,12,0.00
2013-1-17,61.0,42.4,28.8,38.1,31.2,27.2,97,70,29,30.35,30.23,15,1,15,0.01
2013-1-18,61.8,42.3,28.4,37.9,31.5,26.8,98,71,29,30.31,30.21,16,1,16,0.00
2013-1-19,59.7,42.3,26.9,38.5,32.1,25.4,95,72,40,30.34,30.24,15,2,15,0.01
2013-1-20,61.6,42.3,28.4,36.1,30.7,26.1,95,70,29,30.31,30.21,14,1,14,0.00
2013-1-21,61.7,42.3,27.1,40.6,33.7,25.4,96,75,44,30.26,30.17,14,1,14,0.00
2013-1-22,59.5,44.1,30.4,44.3,37.5,28.9,97,80,53,30.20,30.09,10,1,0,0.01
2013-1-23,52.7,47.1,42.4,49.3,45.0,40.1,97,93,78,30.17,30.03,8,0,0,0.09
2013-1-24,57.1,52.5,47.4,51.7,49.6,46.3,97,90,80,30.26,30.14,13,2,13,0.01
2013-1-25,65.7,55.1,47.8,56.4,51.5,46.7,98,88,71,30.25,30.09,10,1,0,0.00
2013-1-26,56.2,48.6,41.8,50.9,43.1,35.9,99,83,48,30.14,30.04,18,2,18,0.01
2013-1-27,54.8,43.9,33.3,40.9,35.7,29.2,97,76,38,30.23,30.12,13,1,13,0.00
2013-1-28,57.6,45.3,36.4,43.3,38.3,34.3,94,78,47,30.35,30.23,13,1,13,0.00
2013-1-29,59.6,45.0,34.9,43.0,38.5,33.7,97,80,45,30.42,30.33,9,1,0,0.00
2013-1-30,65.0,46.4,33.8,46.1,39.2,32.8,98,79,47,30.42,30.33,12,1,12,0.00
2013-1-31,63.4,45.6,32.3,48.1,40.0,31.1,98,83,56,30.37,30.25,10,1,0,0.01
2013-2-1,63.4,46.7,32.9,48.0,40.8,31.6,98,82,55,30.29,30.19,13,1,13,0.00
2013-2-2,62.2,47.1,38.0,50.5,42.9,36.8,98,86,62,30.35,30.27,10,1,0,0.00
2013-2-3,61.7,47.4,36.9,48.2,42.7,36.1,99,85,57,30.32,30.19,9,1,0,0.00
2013-2-4,67.5,48.3,38.5,52.7,45.0,37.2,99,90,55,30.24,30.12,12,1,12,0.01
2013-2-5,55.4,48.4,39.2,47.8,44.1,37.8,95,86,73,30.22,30.13,12,2,12,0.00
2013-2-6,57.7,38.8,31.5,46.2,36.2,30.5,98,91,61,30.26,30.20,6,0,0,0.01
2013-2-13,65.8,53.7,32.3,43.5,38.2,31.3,97,60,37,30.41,30.30,10,2,0,0.00
2013-3-8,61.1,51.8,40.2,45.1,41.7,37.1,93,70,47,30.11,29.92,15,2,15,0.00
2013-3-9,67.7,49.0,33.8,44.2,39.0,32.8,98,73,32,30.37,30.11,14,1,14,0.00
2013-3-10,71.0,50.2,32.7,42.6,36.0,30.8,97,65,24,30.42,30.31,14,1,14,0.00
2013-3-11,75.0,52.3,34.2,47.2,39.0,32.4,96,66,28,30.32,30.16,11,1,0,0.00
2013-3-12,75.6,55.9,39.2,50.9,44.9,37.6,97,71,34,30.20,30.11,12,1,12,0.00
2013-3-13,76.0,57.9,40.2,55.6,48.8,38.9,98,75,46,30.22,30.11,12,1,12,0.00
2013-3-14,74.8,57.6,44.4,57.0,48.5,41.3,97,75,33,30.20,30.13,12,1,12,0.00
2013-3-15,74.2,55.7,42.4,53.7,47.0,41.1,97,76,37,30.18,30.09,10,1,0,0.00
2013-3-16,73.1,57.0,46.6,53.1,47.4,40.2,98,74,36,30.16,30.08,12,1,12,0.00
2013-3-17,71.3,53.5,40.2,46.4,43.0,37.6,96,71,35,30.20,30.09,13,1,13,0.00
2013-3-18,70.5,53.1,39.2,50.1,44.6,37.8,97,75,45,30.18,30.08,11,1,0,0.00
2013-3-19,70.8,53.9,43.4,47.1,44.2,40.5,95,74,37,30.19,30.11,18,1,18,0.05
2013-3-20,62.2,53.5,48.5,54.9,51.0,46.8,98,92,68,30.19,30.12,15,1,15,0.06
2013-3-21,65.0,51.3,38.4,50.6,43.4,37.4,98,77,42,30.19,30.06,12,1,12,0.00
2013-3-22,68.0,50.4,34.7,41.1,32.4,6.0,97,61,10,30.17,30.07,20,2,20,0.01
2013-3-23,69.8,49.6,32.2,38.4,32.3,21.0,96,60,22,30.21,30.09,12,1,12,0.00
2013-3-24,72.0,54.1,38.0,49.9,43.2,36.2,96,70,43,30.15,30.02,13,1,13,0.00
2013-3-25,60.3,50.5,46.2,46.4,44.2,42.1,93,80,56,30.08,29.99,14,2,14,0.00
2013-3-26,68.3,54.6,46.8,49.3,45.1,42.3,88,72,46,30.06,29.98,14,2,14,0.00
2013-3-27,63.7,53.7,44.3,52.6,48.5,41.9,94,83,65,30.07,30.00,17,2,17,0.00
2013-3-28,70.0,58.7,50.1,56.0,53.0,48.1,97,82,59,30.13,30.06,10,1,0,0.06
2013-3-29,78.0,59.7,45.1,54.6,49.9,43.9,97,73,42,30.14,30.06,18,2,18,0.00
2013-3-30,71.5,58.7,52.7,54.7,52.1,50.0,94,80,51,30.11,30.02,13,1,13,0.02
2013-3-31,69.0,58.3,51.1,54.3,52.1,46.9,98,82,49,30.12,30.05,15,1,15,0.33
2013-4-1,64.6,55.5,47.2,57.1,51.4,45.6,99,87,63,30.21,30.10,12,1,12,1.00
2013-4-2,70.9,55.6,43.5,56.3,49.7,42.7,99,82,52,30.24,30.13,11,1,0,0.01
2013-4-3,77.6,59.2,47.9,57.4,50.7,47.1,99,76,46,30.20,30.03,11,1,0,0.00
2013-4-4,62.9,55.9,51.7,57.2,53.0,49.0,97,90,77,30.17,30.04,14,2,14,0.37
2013-4-5,60.6,56.0,52.6,54.9,51.8,49.5,97,86,74,30.24,30.17,12,1,12,0.02
2013-4-6,63.6,55.9,52.2,56.4,52.3,49.4,95,88,73,30.25,30.18,14,2,14,0.01
2013-4-7,62.8,54.5,50.7,54.0,50.2,46.1,95,86,66,30.22,29.89,25,3,25,0.14
2013-4-8,67.8,54.7,45.9,49.3,38.3,21.9,91,59,18,30.08,29.84,27,4,27,0.01
2013-4-9,75.2,58.6,42.4,43.2,35.9,24.6,92,51,17,30.15,30.07,22,2,22,0.00
2013-4-10,83.9,63.7,45.9,51.2,47.5,42.6,91,61,29,30.22,30.08,16,2,16,0.00
2013-4-11,73.2,58.8,48.0,52.4,48.4,37.8,95,71,34,30.10,29.88,14,2,14,0.00
2013-4-12,76.8,56.9,43.6,54.3,46.7,38.8,98,73,27,29.96,29.88,14,2,14,0.00
2013-4-13,69.0,55.7,47.5,50.5,46.9,43.9,92,74,49,29.95,29.87,13,2,13,0.00
2013-4-14,68.2,53.8,41.4,47.2,41.9,32.3,97,69,29,29.98,29.90,23,2,23,0.00
2013-4-15,58.6,50.2,43.4,47.1,40.1,31.4,91,70,39,30.00,29.90,25,3,25,0.00
2013-4-16,65.8,51.8,37.6,38.8,33.0,14.7,90,55,14,30.20,30.00,21,2,21,0.00
2013-4-17,68.0,54.3,38.9,38.9,30.4,18.8,83,47,16,30.32,30.21,21,2,21,0.00
2013-4-18,76.7,55.7,37.3,42.8,36.9,30.4,94,57,22,30.33,30.23,13,1,13,0.00
2013-4-19,81.7,61.9,42.9,52.0,45.8,40.2,92,60,30,30.28,30.11,13,1,13,0.00
2013-4-20,79.0,61.7,45.6,49.1,44.1,35.8,94,59,22,30.15,30.02,15,2,15,0.00
2013-4-21,86.3,64.2,43.4,50.0,43.7,34.6,94,56,19,30.09,29.97,14,1,14,0.00
2013-4-22,88.0,66.3,46.6,53.0,44.6,29.9,93,55,13,30.01,29.88,12,1,12,0.00
2013-4-23,82.5,62.6,45.8,48.3,38.7,19.5,91,52,11,29.98,29.89,18,2,18,0.00
2013-4-24,75.2,55.7,42.3,51.0,45.9,34.0,96,74,27,29.99,29.88,12,2,12,0.00
2013-4-25,62.9,54.9,50.3,52.4,49.0,47.1,92,81,64,30.18,29.99,16,2,16,0.00
2013-4-26,75.1,56.6,49.2,53.5,48.9,46.4,91,77,47,30.27,30.17,13,2,13,0.00
2013-4-27,80.8,60.0,48.1,57.8,50.2,45.9,93,73,40,30.27,30.11,12,2,12,0.00
2013-4-28,89.4,65.8,47.6,56.4,51.0,45.8,97,66,25,30.12,29.92,7,2,0,0.00
2013-4-29,90.2,69.1,50.5,56.1,50.9,43.8,95,60,26,29.94,29.79,12,1,12,0.00
2013-4-30,82.3,65.0,49.3,53.5,46.7,33.1,96,59,18,29.88,29.82,14,1,14,0.00
2013-5-1,83.4,69.6,52.8,45.3,28.2,11.8,73,25,10,30.12,29.88,26,3,26,0.00
2013-5-2,91.2,70.1,50.2,43.7,32.5,14.1,78,33,10,30.19,30.10,15,2,17,0.00
2013-5-3,90.3,68.6,47.0,45.5,40.5,29.5,81,43,16,30.12,29.83,10,1,0,0.00
2013-5-4,89.0,65.2,47.9,50.0,43.4,31.2,84,53,15,29.83,29.59,12,2,12,0.00
2013-5-5,67.8,58.7,52.2,51.7,48.6,46.8,87,70,51,29.85,29.64,12,1,12,0.00
2013-5-6,71.8,59.5,50.2,52.9,50.6,48.1,95,74,48,30.01,29.85,16,1,16,0.00
2013-5-7,70.7,60.1,52.1,53.9,51.0,45.6,92,74,44,30.08,30.00,13,2,13,0.00
2013-5-8,64.3,55.4,51.8,53.3,50.6,49.0,93,84,63,30.19,30.08,17,2,17,0.00
2013-5-9,66.3,56.1,50.7,52.5,49.8,48.1,92,80,60,30.23,30.14,16,3,16,0.00
2013-5-10,70.3,56.5,50.1,56.5,51.4,48.1,97,84,59,30.24,30.16,15,3,15,0.00
2013-5-11,90.8,67.4,51.5,61.2,52.9,44.6,97,66,22,30.20,30.07,10,2,0,0.00
2013-5-12,83.7,66.1,51.0,59.0,54.0,48.8,95,68,41,30.17,30.06,14,2,14,0.00
2013-5-13,80.8,62.1,51.7,58.1,53.4,49.5,93,75,46,30.13,29.99,13,2,13,0.00
2013-5-14,70.0,58.5,51.7,54.4,50.3,46.3,91,75,50,30.06,29.97,19,4,19,0.00
2013-5-15,63.7,56.1,50.4,51.9,48.9,46.3,91,78,59,30.11,30.04,20,4,20,0.00
2013-5-16,67.4,57.7,52.1,56.4,51.9,48.3,94,82,58,30.08,30.00,21,3,21,0.00
2013-5-17,67.4,56.2,50.3,50.7,47.8,43.3,92,75,48,30.12,30.01,19,2,19,0.00
2013-5-18,74.5,60.4,50.8,53.2,50.1,47.3,91,72,41,30.18,30.12,13,2,13,0.00
2013-5-19,83.7,64.3,46.4,51.6,46.6,39.1,97,60,25,30.16,30.01,13,1,13,0.00
2013-5-20,88.0,65.8,44.9,52.6,43.7,32.6,95,55,16,30.04,29.95,15,2,15,0.00
2013-5-21,70.5,58.8,50.5,51.2,46.9,41.2,91,67,39,30.02,29.95,20,3,20,0.00
2013-5-22,65.4,54.4,41.2,42.5,36.1,22.7,84,53,21,30.06,29.94,20,2,20,0.00
2013-5-23,67.7,55.2,42.9,46.6,43.0,39.6,93,67,40,30.05,29.96,15,2,15,0.00
2013-5-24,69.3,55.5,44.3,48.5,44.9,40.4,96,71,36,30.05,29.99,18,2,18,0.00
2013-5-25,64.1,55.1,49.1,49.8,47.4,45.3,92,76,55,30.10,30.01,16,3,16,0.00
2013-5-26,68.3,58.6,51.3,54.3,51.4,48.8,92,78,59,30.17,30.09,17,3,17,0.00
2013-5-27,63.4,56.6,51.3,56.3,52.5,48.6,95,86,71,30.17,30.04,13,2,13,0.02
2013-5-28,70.7,60.8,55.5,58.2,54.9,52.3,97,82,55,30.05,29.96,16,2,16,0.02
2013-5-29,71.0,61.1,53.5,55.6,52.4,49.4,90,74,51,30.00,29.93,15,2,15,0.00
2013-5-30,76.1,60.8,49.4,51.6,49.1,47.1,94,69,39,30.02,29.97,14,2,14,0.00
2013-5-31,88.8,67.1,45.9,51.3,47.2,36.7,97,57,19,30.06,29.94,11,1,0,0.00
2013-6-1,93.2,72.3,50.4,55.7,49.8,43.8,92,53,20,29.97,29.79,12,1,12,0.00
2013-6-2,81.0,64.0,52.4,57.0,52.0,49.6,91,68,38,29.81,29.70,14,2,14,0.00
2013-6-3,74.5,59.8,51.7,54.9,51.8,48.8,92,76,48,29.89,29.75,13,2,13,0.00
2013-6-4,65.7,57.3,50.3,54.9,51.9,48.1,94,83,67,30.00,29.88,15,2,15,0.00
2013-6-5,69.7,58.2,52.7,53.9,51.3,49.5,91,79,56,30.04,29.95,15,3,15,0.00
2013-6-6,78.0,60.7,51.0,58.5,52.8,49.6,95,78,50,29.99,29.88,12,3,13,0.00
2013-6-7,99.0,73.5,52.6,63.2,56.7,50.8,96,63,29,29.93,29.74,10,2,0,0.00
2013-6-8,103.7,75.6,59.6,61.0,57.1,54.6,88,58,23,29.81,29.68,14,2,14,0.00
2013-6-9,69.5,59.9,56.0,57.8,54.7,53.0,93,83,66,29.92,29.81,20,2,20,0.00
2013-6-10,69.0,60.1,53.8,54.9,52.7,50.8,91,77,58,29.99,29.83,27,3,27,0.00
2013-6-11,77.0,61.7,51.8,56.5,53.2,49.6,93,75,46,30.02,29.93,12,1,12,0.00
2013-6-12,76.5,61.9,50.0,54.0,50.2,45.3,96,69,37,30.03,29.94,13,2,13,0.00
2013-6-13,78.8,63.1,49.3,53.0,49.4,41.9,94,66,27,30.12,30.03,18,2,18,0.00
2013-6-14,84.7,66.1,47.4,53.0,47.2,35.6,96,58,20,30.03,29.85,16,1,16,0.00
2013-6-15,68.8,57.5,51.1,52.9,50.7,48.6,93,79,55,30.05,29.86,17,3,17,0.00
2013-6-16,81.2,63.6,51.0,55.1,51.8,49.0,94,69,37,30.11,30.04,14,3,14,0.00
2013-6-17,75.0,62.1,52.6,56.8,53.3,49.8,93,75,53,30.12,30.06,16,3,16,0.00
2013-6-18,69.4,60.0,52.7,53.4,51.2,47.3,93,74,50,30.07,30.01,17,2,17,0.00
2013-6-19,74.0,61.8,47.6,50.6,48.0,44.8,93,63,40,30.08,30.02,15,2,15,0.00
2013-6-20,77.8,62.8,47.9,54.2,49.5,45.0,97,66,34,30.05,29.97,13,2,13,0.00
2013-6-21,82.7,64.3,49.7,54.4,50.2,44.8,96,65,31,30.00,29.95,16,1,16,0.00
2013-6-22,87.2,67.0,49.3,54.6,50.9,44.3,96,63,23,29.96,29.87,17,2,17,0.00
2013-6-23,65.5,59.3,54.5,60.9,57.0,53.1,97,92,85,29.92,29.85,15,2,15,0.00
2013-6-24,65.0,60.3,57.1,61.2,57.7,55.1,95,91,83,29.94,29.82,10,1,0,0.01
2013-6-25,73.1,65.1,60.7,65.8,62.0,58.6,95,90,77,30.02,29.91,16,2,16,0.08
2013-6-26,82.2,70.0,62.4,65.6,62.0,58.9,97,78,55,30.07,30.00,13,1,13,0.00
2013-6-27,91.5,73.8,57.9,65.8,59.7,51.6,99,67,29,30.10,30.02,10,1,0,0.00
2013-6-28,98.5,79.7,58.2,64.3,58.2,49.1,94,55,22,30.05,29.90,13,1,13,0.00
2013-6-29,102.1,81.1,59.5,61.1,57.2,49.5,88,50,23,29.93,29.80,13,1,13,0.00
2013-6-30,93.3,76.0,61.5,62.3,58.2,55.8,85,57,30,29.85,29.77,14,2,14,0.00
2013-7-1,95.7,77.2,59.4,63.9,58.0,53.8,90,57,29,29.85,29.81,13,1,13,0.00
2013-7-2,93.4,76.1,61.1,62.3,58.3,54.9,84,57,32,29.92,29.83,20,3,20,0.00
2013-7-3,96.5,76.2,59.0,61.4,57.1,50.1,93,58,28,29.93,29.77,13,2,13,0.00
2013-7-4,98.3,78.4,64.9,63.1,58.3,53.1,75,53,29,29.79,29.68,14,2,14,0.00
2013-7-5,67.0,59.1,55.0,54.8,52.8,51.4,91,80,64,29.81,29.73,20,4,20,0.00
2013-7-6,75.8,61.9,54.1,56.2,53.5,51.3,91,76,50,29.84,29.76,16,3,16,0.00
2013-7-7,81.8,64.9,53.5,56.2,53.5,51.1,94,71,38,29.88,29.79,13,2,13,0.00
2013-7-8,86.8,67.8,53.7,57.0,53.0,45.2,94,64,28,29.99,29.88,11,2,0,0.00
2013-7-9,98.1,74.8,54.1,60.6,52.1,27.0,95,55,9,30.04,29.93,11,1,0,0.00
2013-7-10,88.1,66.0,53.9,55.4,51.8,39.1,93,65,21,29.99,29.90,15,2,15,0.00
2013-7-11,73.3,59.1,52.0,56.2,52.5,50.6,96,81,53,29.97,29.91,16,3,16,0.00
2013-7-12,77.2,63.4,53.8,55.6,52.5,49.8,92,71,41,29.97,29.90,14,2,14,0.00
2013-7-13,84.3,66.6,52.5,56.7,51.9,45.6,95,64,28,29.98,29.91,13,2,13,0.00
2013-7-14,77.0,62.2,52.9,54.9,52.3,49.8,94,73,39,30.02,29.91,13,3,13,0.00
2013-7-15,70.7,57.7,51.5,55.4,52.3,50.3,96,83,58,29.95,29.87,17,3,17,0.00
2013-7-16,65.8,59.1,55.6,55.9,53.5,51.4,91,82,68,30.06,29.89,18,3,18,0.00
2013-7-17,76.0,62.8,55.5,58.1,55.0,52.8,91,78,51,30.12,30.05,14,2,14,0.00
2013-7-18,87.5,66.1,54.5,59.0,53.6,47.7,95,70,27,30.09,29.96,13,2,13,0.00
2013-7-19,86.4,65.7,54.0,59.8,54.9,51.8,96,72,37,29.98,29.84,13,3,13,0.00
2013-7-20,85.0,64.6,53.4,58.9,54.5,51.7,95,73,38,29.88,29.75,13,3,13,0.00
2013-7-21,81.6,64.3,53.9,57.6,53.8,51.6,96,72,39,29.90,29.79,11,3,15,0.00
2013-7-22,81.3,66.0,55.3,59.9,55.8,52.6,95,72,42,29.98,29.89,13,2,13,0.00
2013-7-23,82.8,70.3,60.8,59.4,53.4,45.8,84,58,29,30.01,29.95,11,1,0,0.00
2013-7-24,93.6,72.0,58.6,59.0,53.2,42.1,89,57,19,30.00,29.91,13,2,13,0.00
2013-7-25,80.0,66.1,57.1,56.3,53.8,50.3,86,66,40,30.04,29.94,15,3,15,0.00
2013-7-26,81.1,63.8,54.0,57.7,54.5,51.4,95,75,43,30.12,30.02,11,2,14,0.00
2013-7-27,78.8,62.8,54.3,58.6,55.0,53.0,97,78,45,30.06,29.88,14,2,14,0.00
2013-7-28,72.0,60.1,54.8,57.3,54.3,51.8,97,83,55,29.90,29.83,17,3,17,0.00
2013-7-29,73.0,60.4,54.3,57.1,53.8,51.4,92,80,56,30.04,29.87,17,2,17,0.00
2013-7-30,76.0,62.3,54.5,56.5,53.8,51.6,93,76,50,30.12,30.03,13,2,13,0.00
2013-7-31,72.1,60.2,53.2,56.2,53.4,51.3,94,80,53,30.12,30.04,15,3,15,0.00
2013-8-1,70.3,60.2,55.2,55.4,53.4,52.2,92,79,55,30.11,30.00,19,3,19,0.00
2013-8-2,79.7,62.7,54.2,56.0,53.7,51.6,95,75,42,30.01,29.93,14,2,14,0.00
2013-8-3,76.2,62.6,54.1,56.7,53.8,51.4,92,75,49,30.01,29.92,13,2,13,0.00
2013-8-4,73.5,59.1,53.0,56.5,53.5,51.5,97,83,53,30.04,29.97,15,2,15,0.00
2013-8-5,73.3,59.4,52.8,56.5,53.6,50.8,97,83,55,30.06,29.97,14,2,14,0.00
2013-8-6,70.0,58.8,52.8,56.1,53.7,51.1,96,84,61,30.08,30.00,20,3,20,0.00
2013-8-7,69.2,60.0,55.3,57.8,55.2,52.9,95,85,67,30.14,30.06,14,2,14,0.01
2013-8-8,74.2,61.5,54.6,58.1,55.4,52.7,94,82,57,30.06,29.97,14,2,14,0.00
2013-8-9,71.6,59.5,54.0,57.9,54.6,52.1,95,85,61,30.03,29.95,16,2,16,0.00
2013-8-10,74.3,61.6,55.8,59.0,56.1,53.9,96,84,57,30.08,30.02,15,2,15,0.00
2013-8-11,77.0,61.4,55.1,59.3,56.1,54.2,98,85,53,30.06,29.97,14,2,14,0.00
2013-8-12,82.5,65.5,55.6,58.6,54.5,50.1,95,72,35,30.02,29.96,14,2,14,0.00
2013-8-13,92.1,68.8,53.5,58.8,53.4,40.3,99,66,23,30.01,29.92,12,1,12,0.00
2013-8-14,82.0,65.4,54.1,60.4,56.0,51.6,94,75,40,30.00,29.93,13,2,13,0.00
2013-8-15,84.6,69.8,61.5,65.3,62.2,59.6,95,79,52,29.98,29.93,14,2,14,0.00
2013-8-16,86.3,70.0,59.1,65.0,60.2,55.1,98,75,39,30.00,29.95,13,2,13,0.00
2013-8-17,76.2,64.7,58.2,61.6,58.1,55.6,93,80,58,30.01,29.90,14,2,14,0.00
2013-8-18,100.0,75.6,57.6,62.8,58.0,39.9,99,63,14,29.91,29.77,11,1,12,0.00
2013-8-19,96.3,75.8,62.0,63.1,57.5,49.1,88,57,29,29.90,29.80,13,1,13,0.00
2013-8-20,85.2,68.3,56.5,60.4,56.1,52.2,95,68,37,29.90,29.82,11,1,0,0.00
2013-8-21,79.3,63.4,55.1,57.5,55.1,52.1,94,77,45,29.95,29.86,15,1,15,0.00
2013-8-22,73.1,61.8,56.2,57.1,54.7,53.5,92,79,54,30.00,29.91,15,2,15,0.00
2013-8-23,73.0,61.2,55.9,57.9,55.3,53.3,92,82,58,29.96,29.84,14,3,14,0.00
2013-8-24,76.8,64.8,57.4,59.9,57.3,54.8,93,78,54,29.92,29.86,14,2,14,0.00
2013-8-25,80.2,66.5,60.8,64.3,60.7,57.4,96,83,55,29.96,29.91,13,2,13,0.00
2013-8-26,78.8,66.2,58.3,59.8,57.2,55.1,93,75,49,30.01,29.92,14,2,14,0.00
2013-8-27,82.3,66.5,53.9,60.5,57.4,52.8,98,76,43,29.93,29.83,14,2,14,0.00
2013-8-28,83.2,67.4,58.7,63.6,60.1,57.0,95,80,51,29.96,29.87,14,2,14,0.00
2013-8-29,82.0,68.1,59.8,64.4,60.8,58.1,97,80,47,30.07,29.96,12,2,12,0.00
2013-8-30,92.8,73.0,61.0,64.5,60.4,47.1,98,70,23,30.06,29.92,10,1,0,0.00
2013-8-31,81.0,66.1,56.7,60.2,57.6,54.8,96,77,44,29.99,29.90,13,2,13,0.00
2013-9-1,83.0,67.5,58.3,61.3,58.1,55.1,93,75,42,29.96,29.89,12,2,12,0.00
2013-9-2,79.4,68.2,62.0,63.9,61.7,59.3,93,81,57,29.97,29.89,7,1,0,0.00
2013-9-3,78.7,66.4,58.2,59.6,57.5,52.1,95,76,43,30.01,29.94,17,2,17,0.00
2013-9-4,79.3,66.8,59.3,61.0,58.5,56.6,93,77,48,30.04,29.95,18,2,18,0.00
2013-9-5,80.0,67.0,58.7,59.4,57.5,55.1,92,74,44,30.02,29.96,14,2,14,0.00
2013-9-6,90.3,70.4,51.4,58.7,51.3,42.4,98,60,20,30.00,29.83,16,2,16,0.00
2013-9-7,97.8,72.1,51.4,54.6,48.6,42.8,91,52,18,29.89,29.80,11,1,0,0.00
2013-9-8,97.8,74.6,55.9,60.2,53.3,45.5,94,54,21,29.87,29.75,8,1,0,0.00
2013-9-9,97.1,74.0,57.1,60.5,55.0,45.8,92,58,21,29.81,29.69,14,1,14,0.00
2013-9-10,77.3,65.0,57.4,60.9,57.9,54.6,93,79,56,29.91,29.73,14,2,14,0.00
2013-9-11,71.7,64.6,61.2,59.9,58.2,56.9,89,80,65,30.00,29.90,16,2,16,0.00
2013-9-12,78.8,65.0,58.8,63.0,59.4,57.1,95,83,55,30.00,29.89,14,2,14,0.00
2013-9-13,76.7,62.3,56.6,60.9,57.0,54.7,97,84,57,29.92,29.79,16,3,16,0.00
2013-9-14,70.7,60.0,55.6,59.8,56.2,54.5,97,88,68,29.85,29.76,15,3,15,0.00
2013-9-15,77.8,64.5,56.6,59.3,56.7,53.8,92,78,51,29.88,29.80,13,2,14,0.00
2013-9-16,80.7,66.2,58.7,61.6,58.4,55.4,96,79,47,29.91,29.80,14,2,14,0.00
2013-9-17,73.2,63.7,55.9,57.1,55.1,51.4,93,76,50,29.90,29.83,21,2,21,0.00
2013-9-18,83.0,63.3,47.4,54.5,48.9,41.6,98,66,24,29.93,29.83,14,1,14,0.00
2013-9-19,90.0,66.9,46.1,53.7,46.2,36.1,96,57,18,29.87,29.75,11,1,0,0.00
2013-9-20,71.9,62.4,53.8,61.0,56.8,50.6,92,82,67,29.87,29.78,16,2,17,0.00
2013-9-21,64.9,61.3,53.5,59.8,56.9,51.8,95,86,74,29.91,29.81,10,2,18,0.69
2013-9-22,72.0,59.6,49.2,56.9,52.6,48.7,99,80,49,30.02,29.91,12,1,12,0.01
2013-9-23,82.3,63.9,47.7,60.0,54.5,46.6,98,75,40,30.04,29.94,11,1,0,0.01
2013-9-24,75.8,63.0,55.1,58.3,54.3,48.8,96,75,48,30.00,29.91,21,2,21,0.00
2013-9-25,68.8,58.8,50.0,49.7,47.0,43.6,88,66,44,29.94,29.83,16,2,16,0.00
2013-9-26,74.6,57.7,44.8,47.7,43.0,36.4,94,64,26,30.01,29.85,14,1,14,0.00
2013-9-27,78.5,57.0,40.3,48.1,40.4,31.5,97,62,20,30.12,30.01,13,1,13,0.00
2013-9-28,84.2,61.9,42.6,56.1,42.9,33.4,95,60,19,30.11,30.01,9,1,0,0.00
2013-9-29,73.0,63.0,54.9,60.3,57.4,52.9,96,83,61,30.12,30.06,12,1,12,0.00
2013-9-30,72.9,64.4,54.7,62.8,60.0,51.9,95,86,67,30.08,29.97,7,1,0,0.01
2013-10-1,72.8,58.6,46.0,55.0,50.4,44.8,98,77,47,30.03,29.93,12,1,12,0.01
2013-10-2,76.4,58.5,45.5,55.1,48.6,44.3,97,74,38,30.02,29.95,15,1,15,0.00
2013-10-3,73.0,59.0,41.5,45.7,36.2,25.4,96,52,18,30.09,29.96,28,2,28,0.00
2013-10-4,77.7,66.8,48.9,39.4,30.6,25.9,68,28,16,30.11,29.97,31,5,31,0.00
2013-10-5,82.0,66.3,47.4,40.8,31.2,23.5,72,31,14,30.21,30.11,15,2,15,0.00
2013-10-6,84.2,60.0,39.8,44.8,39.2,30.9,91,54,15,30.15,30.01,11,1,0,0.00
2013-10-7,84.5,62.2,43.2,50.5,39.0,24.0,88,52,12,30.02,29.88,13,1,13,0.00
2013-10-8,77.0,58.1,43.4,50.3,46.3,41.6,97,70,35,29.92,29.74,14,1,14,0.00
2013-10-9,68.3,55.9,46.0,49.9,46.6,41.9,95,73,45,29.78,29.64,16,1,16,0.00
2013-10-10,72.4,55.5,42.7,49.4,44.9,40.4,96,71,38,30.03,29.78,12,1,12,0.00
2013-10-11,72.2,55.5,44.3,53.3,48.3,42.4,97,80,43,30.10,29.99,9,0,0,0.00
2013-10-12,71.3,54.1,43.3,54.0,46.9,41.9,99,80,42,30.02,29.93,12,1,12,0.01
2013-10-13,73.5,55.3,44.0,55.6,44.5,38.6,99,72,30,30.09,29.94,13,1,13,0.00
2013-10-14,75.0,55.5,38.6,45.4,39.4,35.4,96,62,24,30.14,30.02,17,1,17,0.00
2013-10-15,77.3,57.4,38.4,40.3,36.3,30.0,93,54,18,30.06,29.97,20,2,20,0.00
2013-10-16,82.9,58.0,39.3,43.8,37.7,31.6,91,55,19,30.11,30.02,11,1,0,0.00
2013-10-17,83.3,57.5,38.7,45.9,37.2,28.0,93,56,15,30.10,29.98,10,1,0,0.00
2013-10-18,83.2,58.4,39.5,45.1,39.8,35.6,93,58,21,30.07,29.98,11,1,0,0.00
2013-10-19,82.3,58.5,39.7,47.6,42.1,37.7,95,62,23,30.09,30.00,12,1,12,0.00
2013-10-20,84.5,58.8,39.5,50.4,43.8,37.1,96,65,22,30.04,29.91,9,0,0,0.00
2013-10-21,79.3,58.6,47.4,53.9,48.7,43.3,97,74,31,30.02,29.91,10,1,0,0.00
2013-10-22,82.4,57.5,42.4,54.6,47.8,41.1,98,75,33,30.03,29.92,10,1,0,0.00
2013-10-23,80.8,55.9,44.3,55.6,49.3,42.8,99,82,39,29.99,29.89,9,1,0,0.01
2013-10-24,60.0,52.0,49.1,50.5,48.7,46.8,95,89,70,30.12,29.98,10,2,13,0.00
2013-10-25,74.2,57.4,44.5,52.7,48.3,43.2,96,75,41,30.19,30.08,10,1,0,0.00
2013-10-26,78.1,56.8,40.8,52.6,44.6,39.1,98,70,26,30.16,30.02,10,1,0,0.00
2013-10-27,55.9,51.1,45.7,50.4,47.7,42.7,96,88,77,30.04,29.69,31,3,31,0.00
2013-10-28,62.4,52.1,41.1,49.9,46.2,39.8,97,81,55,29.86,29.69,17,1,17,0.00
2013-10-29,62.7,54.0,42.6,49.6,47.1,40.6,93,79,55,30.07,29.86,12,1,12,0.00
2013-10-30,42.5,40.8,39.4,40.6,39.2,37.8,95,94,93,30.09,30.07,0,0,0,0.00
2013-11-4,69.0,54.1,33.4,41.7,32.2,21.7,96,49,17,30.11,29.97,15,1,15,0.00
2013-11-5,71.5,51.3,35.5,41.6,36.1,32.6,91,61,27,30.25,30.09,11,1,0,0.00
2013-11-6,69.0,52.7,37.9,43.7,40.0,35.6,93,66,34,30.28,30.19,11,1,12,0.00
2013-11-7,76.4,55.7,42.1,46.0,41.0,30.8,91,64,20,30.19,30.08,10,0,0,0.00
2013-11-8,75.3,55.2,39.6,52.3,45.8,38.1,97,75,37,30.10,29.97,9,0,0,0.00
2013-11-9,72.4,52.7,38.5,49.1,44.0,37.1,96,76,41,30.06,29.98,10,1,0,0.00
2013-11-10,70.5,51.2,39.5,52.2,45.1,38.1,97,82,44,30.14,30.05,8,0,0,0.00
2013-11-11,65.8,53.9,43.9,51.9,47.5,42.7,98,81,53,30.19,30.10,9,0,0,0.01
2013-11-12,71.8,56.9,44.1,52.5,47.5,41.3,94,74,37,30.28,30.17,8,0,0,0.00
2013-11-13,78.7,55.3,39.3,53.6,45.5,37.7,97,75,31,30.27,30.11,9,0,0,0.00
2013-11-14,70.5,54.6,48.1,55.5,50.6,43.3,99,87,58,30.13,29.88,9,1,0,0.00
2013-11-15,66.3,50.0,38.4,45.7,40.8,36.8,97,74,37,29.90,29.75,11,1,0,0.00
2013-11-16,63.2,52.6,43.1,50.2,46.3,41.0,97,81,45,29.95,29.79,9,1,12,0.00
2013-11-17,64.1,52.5,42.0,50.5,46.6,39.9,97,82,53,30.11,29.94,9,1,0,0.00
2013-11-18,59.7,48.4,37.7,48.5,44.0,36.6,98,86,62,30.18,30.10,13,1,13,0.00
2013-11-19,59.9,54.7,49.9,55.0,51.4,47.2,97,89,75,30.13,29.96,13,1,13,0.00
2013-11-20,58.1,55.5,51.6,57.2,54.7,51.1,98,97,93,29.96,29.85,9,1,0,0.00
2013-11-21,60.4,54.1,48.5,51.1,37.2,19.6,98,61,26,30.02,29.90,34,4,34,0.00
2013-11-22,68.0,57.3,42.6,30.1,19.1,10.1,52,24,12,30.04,29.91,30,3,30,0.00
2013-11-23,65.3,51.7,38.8,39.4,33.9,27.3,92,54,29,30.12,29.98,13,1,13,0.00
2013-11-24,62.7,45.2,33.0,46.2,38.1,31.6,97,79,42,30.29,30.12,8,0,0,0.00
2013-11-25,61.2,44.5,31.7,46.9,39.2,30.4,97,83,57,30.36,30.28,9,1,0,0.00
2013-11-26,59.1,46.4,35.8,44.4,39.9,34.6,98,80,52,30.30,30.07,13,1,13,0.00
2013-11-27,60.0,47.5,36.6,48.2,42.8,35.3,98,85,64,30.07,29.88,13,1,13,0.00
2013-11-28,67.3,49.7,37.9,46.5,40.8,36.6,97,76,41,30.10,29.90,10,0,0,0.00
2013-11-29,69.3,48.4,34.7,46.7,40.7,33.3,98,78,42,30.25,30.10,7,0,0,0.01
2013-11-30,67.1,46.9,35.4,47.2,40.4,34.1,97,81,45,30.30,30.21,8,0,0,0.00
2013-12-1,68.0,48.6,34.4,48.9,40.6,33.1,98,78,43,30.37,30.25,10,0,0,0.00
2013-12-2,64.6,49.0,34.3,52.3,44.7,33.0,98,86,61,30.26,29.98,11,1,0,0.00
2013-12-3,54.3,46.9,33.8,52.8,37.7,27.9,95,72,45,29.98,29.86,14,1,14,0.00
2013-12-4,53.0,35.8,24.7,33.0,24.0,16.5,95,68,27,30.12,29.96,9,0,0,0.00
2013-12-5,50.2,32.1,20.0,26.2,20.4,13.5,93,68,25,30.20,30.11,10,0,0,0.00
2013-12-6,52.2,38.8,23.9,47.3,32.2,21.8,95,79,44,30.22,29.94,23,2,23,0.01
2013-12-7,47.1,39.1,27.7,44.9,31.7,25.1,98,78,45,30.28,29.94,18,1,18,0.00
2013-12-8,42.0,34.8,27.0,28.4,22.2,13.3,95,63,36,30.35,30.26,17,2,17,0.00
2013-12-9,47.7,36.8,26.5,26.7,19.6,12.8,89,52,31,30.45,30.33,27,2,27,0.00
2013-12-10,51.0,35.7,24.1,30.8,26.3,21.9,94,72,37,30.44,30.24,13,1,13,0.00
2013-12-11,53.8,37.7,26.4,33.9,28.9,24.4,94,74,37,30.28,30.20,17,1,17,0.00
2013-12-12,58.2,38.8,26.4,36.2,30.8,24.7,96,76,40,30.30,30.19,10,1,0,0.00
2013-12-13,59.7,40.8,29.2,42.1,32.5,27.4,97,77,32,30.35,30.25,10,1,0,0.00
2013-12-14,58.2,40.1,28.1,38.9,32.3,26.5,97,77,42,30.43,30.33,11,1,0,0.00
2013-12-15,60.7,41.6,28.7,40.6,33.6,26.9,96,76,41,30.40,30.27,12,1,12,0.00
2013-12-16,65.3,48.3,35.2,38.9,35.3,31.9,89,64,31,30.28,30.14,14,1,14,0.00
2013-12-17,63.6,46.0,34.9,42.9,37.6,32.5,95,75,41,30.20,30.05,8,1,13,0.00
2013-12-18,62.3,47.0,35.0,47.4,41.1,33.1,94,82,45,30.06,29.78,14,1,14,0.00
2013-12-19,59.6,46.6,34.0,45.6,33.9,24.8,95,65,31,29.95,29.73,13,1,13,0.00
2013-12-20,62.6,41.6,27.2,30.6,24.4,12.8,88,59,15,30.03,29.94,8,0,0,0.00
2013-12-21,63.2,43.7,31.2,45.7,35.4,28.6,93,76,36,30.11,29.99,10,0,0,0.00
2013-12-22,62.2,45.4,31.4,40.3,35.9,29.9,97,73,41,30.31,30.11,13,1,13,0.00
2013-12-23,60.9,43.7,32.1,42.0,36.5,30.5,97,78,46,30.41,30.30,10,1,0,0.00
2013-12-24,66.0,46.1,33.8,44.3,37.6,32.3,97,76,41,30.36,30.23,16,1,16,0.00
2013-12-25,62.4,44.8,31.8,44.1,37.2,29.9,96,77,45,30.32,30.22,13,1,13,0.01
2013-12-26,64.7,44.3,31.0,42.8,34.7,29.5,97,73,34,30.28,30.19,15,1,15,0.00
2013-12-27,57.5,41.8,29.3,43.5,36.0,27.8,97,81,58,30.26,30.15,10,1,0,0.00
2013-12-28,65.5,43.1,28.5,39.3,30.3,27.0,97,68,24,30.17,30.05,10,1,15,0.00
2013-12-29,62.0,47.6,30.7,33.3,26.8,18.1,90,50,20,30.21,30.11,11,2,18,0.00
2013-12-30,62.6,42.3,28.1,41.1,33.9,26.0,94,75,41,30.28,30.20,5,0,0,0.00
2013-12-31,60.9,41.4,30.1,40.4,32.8,28.4,96,76,33,30.29,30.18,14,1,14,0.00
2014-1-1,64.5,43.0,28.0,37.3,31.5,26.2,96,70,27,30.24,30.14,9,0,0,0.00
2014-1-2,63.9,45.2,32.0,39.2,34.8,29.5,92,71,37,30.20,30.08,12,1,12,0.00